When you browse on this site, cookies collect data to enhance your experience and personalize the content and advertising you see.
Visit our Privacy Policy to learn more. By continuing to use the site, you agree to this use of cookies and data.
  • en France
  • Liste des pays
  • À 7 jours
  • Température de l'eau
  • Carte météo
  • Widgets météo
  • user-avatar
    Se connecter

    Météo par heure à Düsseldorf

    Ce jour, 23 Septembre, Lundi

    Heure Température Précipitation Vent Pression Humidité
    00:00 +18°C° 0.5 mm 3 m/s 755 mmHg 88%
    01:00 +17°C° 1.1 mm 3 m/s 755 mmHg 89%
    02:00 +17°C° 1.1 mm 4 m/s 755 mmHg 89%
    03:00 +17°C° 1.1 mm 4 m/s 755 mmHg 90%
    04:00 +16°C° 0.8 mm 3 m/s 756 mmHg 89%
    05:00 +16°C° 0.8 mm 2 m/s 756 mmHg 89%
    06:00 +15°C° 0.8 mm 2 m/s 756 mmHg 88%
    07:00 +16°C° 0.5 mm 2 m/s 757 mmHg 85%
    08:00 +17°C° 0.5 mm 2 m/s 757 mmHg 83%
    09:00 +18°C° 0.5 mm 3 m/s 757 mmHg 80%
    10:00 +18°C° 0.2 mm 3 m/s 757 mmHg 75%
    11:00 +19°C° 0.2 mm 3 m/s 758 mmHg 70%
    12:00 +20°C° 0.2 mm 4 m/s 758 mmHg 66%
    13:00 +20°C° 0.2 mm 4 m/s 758 mmHg 66%
    14:00 +20°C° 0.2 mm 4 m/s 758 mmHg 66%
    15:00 +20°C° 0.2 mm 3 m/s 758 mmHg 67%
    16:00 +19°C° 0.1 mm 3 m/s 758 mmHg 70%
    17:00 +18°C° 0.1 mm 2 m/s 758 mmHg 74%
    18:00 +18°C° 0.1 mm 1 m/s 758 mmHg 77%
    19:00 +16°C° 0 mm 1 m/s 758 mmHg 78%
    20:00 +16°C° 0 mm 1 m/s 759 mmHg 79%
    21:00 +16°C° 0 mm 1 m/s 759 mmHg 79%
    22:00 +15°C° 0 mm 1 m/s 759 mmHg 81%
    23:00 +15°C° 0 mm 2 m/s 759 mmHg 82%

    Demain, 24 Septembre, Mardi

    Heure Température Précipitation Vent Pression Humidité
    00:00 +15°C° 0 mm 2 m/s 759 mmHg 83%
    01:00 +14°C° 0 mm 2 m/s 758 mmHg 83%
    02:00 +14°C° 0 mm 2 m/s 758 mmHg 83%
    03:00 +13°C° 0 mm 3 m/s 757 mmHg 83%
    04:00 +13°C° 0 mm 3 m/s 757 mmHg 82%
    05:00 +13°C° 0 mm 3 m/s 757 mmHg 81%
    06:00 +13°C° 0 mm 3 m/s 756 mmHg 81%
    07:00 +14°C° 0 mm 3 m/s 756 mmHg 75%
    08:00 +15°C° 0 mm 4 m/s 756 mmHg 70%
    09:00 +18°C° 0 mm 4 m/s 755 mmHg 65%
    10:00 +18°C° 0 mm 4 m/s 755 mmHg 64%
    11:00 +18°C° 0 mm 4 m/s 754 mmHg 63%
    12:00 +19°C° 0 mm 4 m/s 754 mmHg 63%
    13:00 +18°C° 0.2 mm 4 m/s 753 mmHg 66%
    14:00 +18°C° 0.2 mm 3 m/s 753 mmHg 69%
    15:00 +17°C° 0.2 mm 3 m/s 752 mmHg 72%
    16:00 +17°C° 0.9 mm 4 m/s 752 mmHg 76%
    17:00 +15°C° 0.9 mm 4 m/s 752 mmHg 81%
    18:00 +15°C° 0.9 mm 5 m/s 751 mmHg 85%
    19:00 +15°C° 0.3 mm 4 m/s 751 mmHg 85%
    20:00 +15°C° 0.3 mm 4 m/s 751 mmHg 86%
    21:00 +16°C° 0.3 mm 3 m/s 751 mmHg 86%
    22:00 +16°C° 0.1 mm 3 m/s 751 mmHg 87%
    23:00 +14°C° 0.1 mm 3 m/s 751 mmHg 88%

    Après-demain, 25 Septembre, Mercredi

    Heure Température Précipitation Vent Pression Humidité
    00:00 +14°C° 0.1 mm 3 m/s 751 mmHg 89%
    01:00 +14°C° 0 mm 3 m/s 751 mmHg 88%
    02:00 +14°C° 0 mm 3 m/s 751 mmHg 87%
    03:00 +14°C° 0 mm 3 m/s 751 mmHg 87%
    04:00 +14°C° 0.1 mm 3 m/s 751 mmHg 86%
    05:00 +14°C° 0.1 mm 3 m/s 751 mmHg 86%
    06:00 +14°C° 0.1 mm 3 m/s 751 mmHg 85%
    07:00 +14°C° 0.1 mm 4 m/s 751 mmHg 83%
    08:00 +15°C° 0.1 mm 4 m/s 751 mmHg 80%
    09:00 +15°C° 0.1 mm 4 m/s 752 mmHg 77%
    10:00 +15°C° 0.2 mm 5 m/s 751 mmHg 75%
    11:00 +16°C° 0.2 mm 5 m/s 751 mmHg 74%
    12:00 +16°C° 0.2 mm 5 m/s 751 mmHg 72%
    13:00 +16°C° 0.1 mm 5 m/s 751 mmHg 73%
    14:00 +16°C° 0.1 mm 5 m/s 751 mmHg 75%
    15:00 +17°C° 0.1 mm 4 m/s 751 mmHg 76%
    16:00 +15°C° 2.1 mm 5 m/s 751 mmHg 80%
    17:00 +15°C° 2.1 mm 5 m/s 751 mmHg 84%
    18:00 +14°C° 2.1 mm 5 m/s 751 mmHg 88%
    19:00 +14°C° 1.1 mm 5 m/s 751 mmHg 88%
    20:00 +15°C° 1.1 mm 5 m/s 752 mmHg 88%
    21:00 +15°C° 1.1 mm 6 m/s 752 mmHg 89%
    22:00 +15°C° 0.5 mm 5 m/s 752 mmHg 88%
    23:00 +14°C° 0.5 mm 5 m/s 752 mmHg 88%

    26 Septembre, Jeudi

    Heure Température Précipitation Vent Pression Humidité
    00:00 +14°C° 0.5 mm 5 m/s 752 mmHg 87%
    01:00 +14°C° 0 mm 4 m/s 753 mmHg 88%
    02:00 +14°C° 0 mm 4 m/s 753 mmHg 88%
    03:00 +14°C° 0 mm 3 m/s 753 mmHg 89%
    04:00 +14°C° 0.1 mm 3 m/s 753 mmHg 89%
    05:00 +14°C° 0.1 mm 3 m/s 753 mmHg 89%
    06:00 +16°C° 0.1 mm 3 m/s 753 mmHg 89%
    07:00 +16°C° 1 mm 3 m/s 754 mmHg 89%
    08:00 +15°C° 1 mm 4 m/s 754 mmHg 90%
    09:00 +17°C° 1 mm 4 m/s 754 mmHg 90%
    10:00 +18°C° 0.1 mm 4 m/s 754 mmHg 87%
    11:00 +18°C° 0.1 mm 4 m/s 755 mmHg 83%
    12:00 +19°C° 0.1 mm 4 m/s 755 mmHg 80%
    13:00 +19°C° 0.1 mm 4 m/s 755 mmHg 78%
    14:00 +20°C° 0.1 mm 5 m/s 755 mmHg 76%
    15:00 +20°C° 0.1 mm 5 m/s 755 mmHg 73%
    16:00 +19°C° 0 mm 5 m/s 755 mmHg 74%
    17:00 +18°C° 0 mm 4 m/s 755 mmHg 75%
    18:00 +18°C° 0 mm 4 m/s 755 mmHg 76%
    19:00 +17°C° 0.1 mm 4 m/s 755 mmHg 78%
    20:00 +17°C° 0.1 mm 4 m/s 755 mmHg 79%
    21:00 +17°C° 0.1 mm 4 m/s 755 mmHg 80%
    22:00 +17°C° 0.1 mm 4 m/s 755 mmHg 79%
    23:00 +17°C° 0.1 mm 4 m/s 755 mmHg 78%

    27 Septembre, Vendredi

    Heure Température Précipitation Vent Pression Humidité
    00:00 +17°C° 0.1 mm 4 m/s 755 mmHg 78%
    01:00 +17°C° 0.1 mm 4 m/s 754 mmHg 80%
    02:00 +17°C° 0.1 mm 4 m/s 754 mmHg 82%
    03:00 +15°C° 0.1 mm 4 m/s 754 mmHg 84%
    04:00 +15°C° 0.4 mm 4 m/s 754 mmHg 84%
    05:00 +15°C° 0.4 mm 4 m/s 754 mmHg 84%
    06:00 +15°C° 0.4 mm 5 m/s 753 mmHg 84%
    07:00 +16°C° 0.2 mm 5 m/s 753 mmHg 78%
    08:00 +17°C° 0.2 mm 5 m/s 754 mmHg 72%
    09:00 +17°C° 0.2 mm 6 m/s 754 mmHg 65%
    10:00 +19°C° 0.1 mm 6 m/s 754 mmHg 60%
    11:00 +20°C° 0.1 mm 7 m/s 753 mmHg 55%
    12:00 +20°C° 0.1 mm 7 m/s 753 mmHg 50%
    13:00 +20°C° 0.1 mm 7 m/s 753 mmHg 51%
    14:00 +20°C° 0.1 mm 6 m/s 753 mmHg 51%
    15:00 +20°C° 0.1 mm 6 m/s 753 mmHg 52%
    16:00 +19°C° 0.1 mm 5 m/s 753 mmHg 56%
    17:00 +17°C° 0.1 mm 5 m/s 753 mmHg 60%
    18:00 +15°C° 0.1 mm 4 m/s 753 mmHg 65%
    19:00 +15°C° 0 mm 4 m/s 754 mmHg 66%
    20:00 +15°C° 0 mm 4 m/s 754 mmHg 67%
    21:00 +14°C° 0 mm 4 m/s 754 mmHg 69%
    22:00 +14°C° 0 mm 4 m/s 754 mmHg 69%
    23:00 +14°C° 0 mm 4 m/s 754 mmHg 70%

    28 Septembre, Samedi

    Heure Température Précipitation Vent Pression Humidité
    00:00 +14°C° 0 mm 4 m/s 754 mmHg 71%
    01:00 +14°C° 0 mm 5 m/s 753 mmHg 72%
    02:00 +13°C° 0 mm 5 m/s 753 mmHg 73%
    03:00 +13°C° 0 mm 5 m/s 753 mmHg 73%
    04:00 +13°C° 0 mm 5 m/s 753 mmHg 74%
    05:00 +13°C° 0 mm 5 m/s 753 mmHg 75%
    06:00 +11°C° 0 mm 6 m/s 753 mmHg 76%
    07:00 +13°C° 0 mm 6 m/s 753 mmHg 72%
    08:00 +14°C° 0 mm 7 m/s 753 mmHg 69%
    09:00 +15°C° 0 mm 7 m/s 753 mmHg 65%
    10:00 +16°C° 0 mm 7 m/s 753 mmHg 64%
    11:00 +16°C° 0 mm 8 m/s 753 mmHg 62%
    12:00 +17°C° 0 mm 8 m/s 753 mmHg 61%
    13:00 +16°C° 0.3 mm 7 m/s 752 mmHg 65%
    14:00 +16°C° 0.3 mm 7 m/s 752 mmHg 69%
    15:00 +15°C° 0.3 mm 6 m/s 752 mmHg 73%
    16:00 +15°C° 0.4 mm 6 m/s 752 mmHg 75%
    17:00 +14°C° 0.4 mm 6 m/s 752 mmHg 77%
    18:00 +14°C° 0.4 mm 6 m/s 752 mmHg 79%
    19:00 +14°C° 0.2 mm 6 m/s 753 mmHg 80%
    20:00 +14°C° 0.2 mm 6 m/s 753 mmHg 80%
    21:00 +14°C° 0.2 mm 6 m/s 753 mmHg 81%
    22:00 +14°C° 0.3 mm 6 m/s 753 mmHg 82%
    23:00 +14°C° 0.3 mm 6 m/s 752 mmHg 84%
    Voir plus